| time (UTC) | temp F | wind direction | speed MPH | gust MPH | rain 1hr in | rain 24hr in | rain mn in | humidity % | barometer mb |
| 20260902164602 | 84 | 126 | 1.0 | 5.0 | 0.00 | 0.00 | 0.00 | 67 | 1025.8 |
| 20260902163057 | 83 | 0 | 2.0 | 7.0 | 0.00 | 0.00 | 0.00 | 69 | 1025.9 |
| 20260902161559 | 82 | 127 | 3.0 | 5.0 | 0.00 | 0.00 | 0.00 | 69 | 1026.1 |
| 20260902160059 | 81 | 247 | 1.0 | 5.0 | 0.00 | 0.00 | 0.00 | 77 | 1026.2 |
| 20260902154556 | 80 | 256 | 2.0 | 4.0 | 0.00 | 0.00 | 0.00 | 73 | 1026.2 |
| 20260902153057 | 79 | 267 | 1.0 | 4.0 | 0.00 | 0.00 | 0.00 | 76 | 1026.3 |
| 20260902151554 | 77 | 267 | 1.0 | 4.0 | 0.00 | 0.00 | 0.00 | 78 | 1026.2 |
| 20260902150100 | 77 | 267 | 0.0 | 4.0 | 0.00 | 0.00 | 0.00 | 84 | 1026.1 |
| 20260902144603 | 74 | 294 | 0.0 | 3.0 | 0.00 | 0.00 | 0.00 | 83 | 1026.1 |
| 20260902143057 | 73 | 294 | 1.0 | 3.0 | 0.00 | 0.00 | 0.00 | 87 | 1026.2 |
| 20260902141549 | 71 | 309 | 0.0 | 3.0 | 0.00 | 0.00 | 0.00 | 91 | 1026.2 |
| 20260902140058 | 69 | 313 | 1.0 | 3.0 | 0.00 | 0.00 | 0.00 | 94 | 1026.1 |
| 20260902134600 | 68 | 313 | 0.0 | 0.0 | 0.00 | 0.00 | 0.00 | 97 | 1026.2 |
| 20260902133059 | 67 | 0 | 0.0 | 0.0 | 0.00 | 0.00 | 0.00 | 98 | 1026.3 |
| 20260902131552 | 65 | 0 | 0.0 | 0.0 | 0.00 | 0.00 | 0.00 | 98 | 1026.3 |
| 20260902130057 | 65 | 0 | 0.0 | 0.0 | 0.00 | 0.00 | 0.00 | 98 | 1026.3 |
| 20260902124603 | 63 | 0 | 0.0 | 0.0 | 0.00 | 0.00 | 0.00 | 98 | 1026.2 |
| 20260902123059 | 62 | 0 | 0.0 | 0.0 | 0.00 | 0.00 | 0.00 | 98 | 1026.3 |
| 20260902121611 | 62 | 0 | 0.0 | 0.0 | 0.00 | 0.00 | 0.00 | 97 | 1026.3 |
| 20260902120108 | 62 | 0 | 0.0 | 0.0 | 0.00 | 0.00 | 0.00 | 98 | 1026.1 |
| 20260902114616 | 62 | 0 | 0.0 | 0.0 | 0.00 | 0.01 | 0.00 | 98 | 1026.0 |
| 20260902113100 | 61 | 0 | 0.0 | 0.0 | 0.00 | 0.01 | 0.00 | 97 | 1025.8 |
| 20260902111600 | 61 | 0 | 0.0 | 0.0 | 0.00 | 0.01 | 0.00 | 97 | 1025.7 |
| 20260902110100 | 61 | 0 | 0.0 | 0.0 | 0.00 | 0.01 | 0.00 | 97 | 1025.8 |
| 20260902104556 | 62 | 0 | 0.0 | 0.0 | 0.00 | 0.01 | 0.00 | 97 | 1025.7 |
| 20260902103116 | 62 | 0 | 0.0 | 0.0 | 0.00 | 0.01 | 0.00 | 97 | 1025.8 |
| 20260902101551 | 62 | 0 | 0.0 | 0.0 | 0.00 | 0.01 | 0.00 | 97 | 1025.6 |
| 20260902100100 | 62 | 0 | 0.0 | 0.0 | 0.00 | 0.01 | 0.00 | 97 | 1025.6 |
| 20260902094559 | 63 | 0 | 0.0 | 0.0 | 0.00 | 0.01 | 0.00 | 97 | 1025.3 |
| 20260902093103 | 63 | 0 | 0.0 | 0.0 | 0.00 | 0.01 | 0.00 | 97 | 1025.2 |
| 20260902091558 | 63 | 0 | 0.0 | 0.0 | 0.00 | 0.01 | 0.00 | 97 | 1025.0 |
| 20260902090101 | 64 | 0 | 0.0 | 0.0 | 0.00 | 0.01 | 0.00 | 97 | 1024.8 |
| 20260902084556 | 63 | 0 | 0.0 | 0.0 | 0.00 | 0.01 | 0.00 | 97 | 1025.0 |
| 20260902083055 | 63 | 0 | 0.0 | 0.0 | 0.00 | 0.01 | 0.00 | 96 | 1024.9 |
| 20260902081601 | 64 | 0 | 0.0 | 0.0 | 0.00 | 0.01 | 0.00 | 97 | 1024.8 |
| 20260902080100 | 64 | 0 | 0.0 | 0.0 | 0.00 | 0.01 | 0.00 | 96 | 1024.9 |
| 20260902074611 | 64 | 0 | 0.0 | 0.0 | 0.00 | 0.01 | 0.00 | 96 | 1024.8 |
| 20260902073058 | 64 | 0 | 0.0 | 0.0 | 0.00 | 0.01 | 0.00 | 96 | 1024.8 |
| 20260902071550 | 64 | 0 | 0.0 | 0.0 | 0.00 | 0.01 | 0.00 | 96 | 1024.9 |
| 20260902064602 | 65 | 0 | 0.0 | 0.0 | 0.00 | 0.01 | 0.00 | 96 | 1024.9 |
| 20260902063056 | 65 | 0 | 0.0 | 0.0 | 0.00 | 0.01 | 0.00 | 96 | 1025.1 |
| 20260902061603 | 65 | 0 | 0.0 | 0.0 | 0.00 | 0.01 | 0.00 | 96 | 1025.1 |
| 20260902060107 | 65 | 0 | 0.0 | 0.0 | 0.00 | 0.01 | 0.00 | 95 | 1025.3 |
| 20260902054559 | 65 | 0 | 0.0 | 0.0 | 0.00 | 0.01 | 0.00 | 95 | 1025.4 |
| 20260902053103 | 66 | 0 | 0.0 | 0.0 | 0.00 | 0.01 | 0.00 | 95 | 1025.2 |
| 20260902051557 | 66 | 0 | 0.0 | 0.0 | 0.00 | 0.01 | 0.00 | 94 | 1025.2 |
| 20260902044637 | 66 | 0 | 0.0 | 0.0 | 0.00 | 0.01 | 0.00 | 93 | 1025.0 |
| 20260902043058 | 66 | 0 | 0.0 | 0.0 | 0.00 | 0.01 | 0.00 | 94 | 1024.8 |
| 20260902041552 | 67 | 0 | 0.0 | 0.0 | 0.00 | 0.01 | 0.00 | 93 | 1024.8 |
| 20260902040105 | 67 | 0 | 0.0 | 0.0 | 0.00 | 0.01 | 0.00 | 93 | 1024.6 |
| 20260902034606 | 67 | 0 | 0.0 | 0.0 | 0.00 | 0.01 | 0.01 | 93 | 1024.5 |
| 20260902033103 | 67 | 313 | 0.0 | 1.0 | 0.00 | 0.01 | 0.01 | 92 | 1024.6 |
| 20260902031607 | 67 | 0 | 0.0 | 1.0 | 0.00 | 0.01 | 0.01 | 91 | 1024.8 |
| 20260902030057 | 67 | 0 | 0.0 | 2.0 | 0.00 | 0.01 | 0.01 | 91 | 1024.8 |
| 20260902024556 | 68 | 0 | 0.0 | 0.0 | 0.00 | 0.01 | 0.01 | 90 | 1024.8 |
| 20260902023054 | 68 | 313 | 0.0 | 2.0 | 0.00 | 0.01 | 0.01 | 89 | 1024.7 |
| 20260902021603 | 68 | 0 | 0.0 | 2.0 | 0.00 | 0.01 | 0.01 | 89 | 1024.9 |
| 20260902014602 | 69 | 313 | 0.0 | 1.0 | 0.00 | 0.01 | 0.01 | 87 | 1024.7 |
| 20260902013058 | 69 | 0 | 0.0 | 1.0 | 0.00 | 0.01 | 0.01 | 86 | 1024.4 |
| 20260902011557 | 70 | 0 | 0.0 | 0.0 | 0.00 | 0.01 | 0.01 | 86 | 1024.3 |
| 20260902010057 | 70 | 0 | 0.0 | 0.0 | 0.00 | 0.01 | 0.01 | 86 | 1024.3 |
| 20260902004558 | 71 | 0 | 0.0 | 1.0 | 0.00 | 0.01 | 0.01 | 85 | 1024.1 |
| 20260902003055 | 72 | 313 | 0.0 | 1.0 | 0.00 | 0.01 | 0.01 | 85 | 1024.0 |
| 20260902001602 | 73 | 0 | 0.0 | 2.0 | 0.00 | 0.01 | 0.01 | 85 | 1023.9 |
| 20260902000058 | 74 | 313 | 1.0 | 2.0 | 0.00 | 0.01 | 0.01 | 83 | 1023.9 |
| 20260901234610 | 76 | 313 | 0.0 | 3.0 | 0.00 | 0.01 | 0.01 | 81 | 1023.8 |
| 20260901233101 | 77 | 0 | 0.0 | 2.0 | 0.00 | 0.01 | 0.01 | 77 | 1023.9 |
| 20260901231600 | 79 | 0 | 0.0 | 2.0 | 0.00 | 0.01 | 0.01 | 73 | 1024.0 |
| 20260901230058 | 80 | 313 | 0.0 | 3.0 | 0.00 | 0.01 | 0.01 | 70 | 1024.1 |
| 20260901224558 | 81 | 0 | 1.0 | 4.0 | 0.00 | 0.01 | 0.01 | 67 | 1023.9 |
| 20260901223051 | 82 | 0 | 0.0 | 4.0 | 0.00 | 0.01 | 0.01 | 67 | 1024.1 |
| 20260901221607 | 83 | 0 | 0.0 | 8.0 | 0.00 | 0.01 | 0.01 | 65 | 1023.9 |
| 20260901220115 | 84 | 0 | 0.0 | 4.0 | 0.00 | 0.01 | 0.01 | 66 | 1023.9 |
| 20260901214554 | 83 | 0 | 1.0 | 7.0 | 0.00 | 0.01 | 0.01 | 64 | 1024.1 |
| 20260901213113 | 83 | 121 | 1.0 | 8.0 | 0.00 | 0.01 | 0.01 | 64 | 1024.2 |
| 20260901211557 | 84 | 124 | 0.0 | 7.0 | 0.00 | 0.01 | 0.01 | 63 | 1024.1 |
| 20260901210056 | 84 | 119 | 2.0 | 6.0 | 0.00 | 0.01 | 0.01 | 60 | 1024.1 |
| 20260901204555 | 85 | 350 | 2.0 | 5.0 | 0.00 | 0.01 | 0.01 | 62 | 1024.2 |
| 20260901203053 | 86 | 67 | 1.0 | 4.0 | 0.00 | 0.01 | 0.01 | 59 | 1024.2 |
| 20260901201602 | 85 | 0 | 2.0 | 6.0 | 0.00 | 0.01 | 0.01 | 60 | 1024.2 |
| 20260901200054 | 84 | 13 | 2.0 | 5.0 | 0.00 | 0.01 | 0.01 | 63 | 1024.4 |
| 20260901194602 | 83 | 15 | 2.0 | 5.0 | 0.00 | 0.01 | 0.01 | 62 | 1024.4 |
| 20260901193102 | 84 | 0 | 0.0 | 5.0 | 0.00 | 0.01 | 0.01 | 68 | 1024.4 |
| 20260901191600 | 84 | 85 | 3.0 | 8.0 | 0.00 | 0.01 | 0.01 | 64 | 1024.6 |
| 20260901190056 | 84 | 0 | 2.0 | 7.0 | 0.00 | 0.01 | 0.01 | 63 | 1024.9 |
| 20260901184559 | 83 | 0 | 2.0 | 6.0 | 0.00 | 0.01 | 0.01 | 64 | 1024.9 |
| 20260901183059 | 83 | 336 | 2.0 | 7.0 | 0.00 | 0.01 | 0.01 | 64 | 1025.1 |
| 20260901181556 | 83 | 116 | 1.0 | 7.0 | 0.00 | 0.01 | 0.01 | 71 | 1025.0 |
| 20260901180054 | 82 | 161 | 1.0 | 5.0 | 0.00 | 0.01 | 0.01 | 70 | 1025.0 |
| 20260901174601 | 80 | 98 | 2.0 | 7.0 | 0.00 | 0.01 | 0.01 | 69 | 1025.0 |
| 20260901173059 | 81 | 149 | 1.0 | 6.0 | 0.00 | 0.01 | 0.01 | 71 | 1025.2 |
| 20260901171605 | 81 | 114 | 0.0 | 6.0 | 0.00 | 0.01 | 0.01 | 74 | 1025.3 |
| 20260901170119 | 80 | 86 | 5.0 | 12.0 | 0.00 | 0.01 | 0.01 | 73 | 1025.6 |